This demonstration page uses our WeatherBlox Daily Observations layout. Learn more.

Hourly Observations for May 4, 2018

Temp ( °F °C ) Dew Point ( °F °C ) Humidity (%) Winds ( mph kmh ) Pressure ( in mb ) Visibility ( mi km ) Precip ( " mm )
12:54 am 00:54 Partly Cloudy with Light Rain 53 11.7 48 8.9 83 83 NW 10 17 29.95 1014 N/A 0 0.0254
1:54 am 01:54 Clear 52 11.1 48 8.9 86 86 NW 7 11 29.95 1014 N/A 0 0.0254
2:54 am 02:54 Mostly Cloudy with Light Rain 55 12.8 48 8.9 77 77 NNW 14 22 29.96 1014 N/A 0 0.0254
3:54 am 03:54 Cloudy with Light Rain 56 13.3 45 7.2 67 67 N 9 15 29.96 1015 N/A 0 0.0254
4:54 am 04:54 Cloudy with Light Rain 55 12.8 45 7.2 69 69 NW 7 11 30.01 1016 N/A 0 0.0254
5:54 am 05:54 Clear 54 12.2 45 7.2 72 72 W 3 6 30.03 1017 10 16.0934 0 0.0254
6:54 am 06:54 Sunny 52 11.1 45 7.2 77 77 W 5 7 30.05 1018 10 16.0934 0 0.0254
7:54 am 07:54 Sunny with Light Rain 55 12.8 46 7.8 72 72 WNW 9 15 30.06 1018 N/A 0 0.0254
8:54 am 08:54 Sunny 61 16.1 48 8.9 63 63 WNW 9 15 30.07 1018 10 16.0934 0 0.0254
9:54 am 09:54 Sunny 66 18.9 49 9.4 54 54 NW 10 17 30.06 1018 10 16.0934 0 0
10:54 am 10:54 Sunny 72 22.2 47 8.3 41 41 WNW 9 15 30.07 1018 10 16.0934 0 0
11:54 am 11:54 Sunny 76 24.4 45 7.2 33 33 NNW 12 19 30.07 1018 10 16.0934 0 0
12:54 pm 12:54 Sunny 79 26.1 44 6.7 29 29 NW 8 13 30.07 1018 10 16.0934 0 0
1:54 pm 13:54 Mostly Sunny 80 26.7 39 3.9 23 23 NNW 17 28 30.08 1019 10 16.0934 0 0
2:54 pm 14:54 Sunny 79 26.1 42 5.6 27 27 N 12 19 30.07 1018 10 16.0934 0 0
3:54 pm 15:54 Mostly Sunny 81 27.2 42 5.6 25 25 N 12 19 30.06 1018 10 16.0934 0 0
4:54 pm 16:54 Sunny 81 27.2 35 1.7 19 19 WNW 13 20 30.05 1018 10 16.0934 0 0
5:54 pm 17:54 Sunny 79 26.1 38 3.3 23 23 N 14 22 30.06 1018 10 16.0934 0 0
6:54 pm 18:54 Sunny 78 25.6 37 2.8 23 23 N 13 20 30.07 1018 10 16.0934 0 0
7:54 pm 19:54 Sunny 74 23.3 37 2.8 26 26 NNW 8 13 30.08 1019 10 16.0934 0 0
8:54 pm 20:54 Clear 65 18.3 39 3.9 39 39 NE 5 7 30.09 1019 10 16.0934 0 0
9:54 pm 21:54 Clear 62 16.7 40 4.4 44 44 Calm 30.09 1019 10 16.0934 0 0
10:54 pm 22:54 Clear 54 12.2 41 5 62 62 Calm 30.09 1019 10 16.0934 0 0
11:54 pm 23:54 Clear 53 11.7 41 5 64 64 Calm 30.08 1019 10 16.0934 0 0

Powered by AerisWeather